EW9119 Weather Reports


Display with metric or nautical units.
time (UTC)temp
F
wind
direction
speed
MPH
gust
MPH
rain 1hr
in
rain 24hr
in
rain mn
in
humidity
%
barometer
mb
20260510153038 78 307 0.0 0.0 0.00 0.00 0.00 49 1013.9
20260510151527 78 31 0.0 0.0 0.00 0.00 0.00 48 1014.0
20260510150022 77 303 0.0 0.0 0.00 0.00 0.00 45 1014.0
20260510144527 76 320 0.0 0.0 0.00 0.00 0.00 47 1014.0
20260510143013 74 322 0.0 0.0 0.00 0.00 0.00 52 1014.1
20260510141513 73 297 0.0 0.0 0.00 0.00 0.00 55 1014.2
20260510140005 71 296 0.0 0.0 0.00 0.00 0.00 58 1014.2
20260510134607 70 304 0.0 0.0 0.00 0.00 0.00 60 1014.3
20260510133113 68 202 0.0 0.0 0.00 0.00 0.00 49 1014.1
20260510131602 66 199 0.0 0.0 0.00 0.00 0.00 1 1014.1
20260510130047 64 27 0.0 0.0 0.00 0.00 0.00 1 1014.2
20260510124543 62 52 0.0 0.0 0.00 0.00 0.00 1 1014.1
20260510123052 59 55 0.0 0.0 0.00 0.00 0.00 1 1013.9
20260510121534 57 55 0.0 0.0 0.00 0.00 0.00 1 1013.7
20260510120032 54 62 0.0 0.0 0.00 0.00 0.00 1 1013.3
20260510114525 53 62 0.0 0.0 0.00 0.00 0.00 1 1012.9
20260510113023 52 62 0.0 0.0 0.00 0.00 0.00 1 1012.8
20260510111517 52 62 0.0 0.0 0.00 0.00 0.00 1 1012.6
20260510110012 53 62 0.0 0.0 0.00 0.00 0.00 1 1012.5
20260510104508 53 62 0.0 0.0 0.00 0.00 0.00 1 1012.1
20260510103005 53 63 0.0 0.0 0.00 0.00 0.00 1 1011.9
20260510101559 54 63 0.0 0.0 0.00 0.00 0.00 1 1011.7
20260510100055 54 63 0.0 0.0 0.00 0.00 0.00 1 1011.5
20260510094551 55 63 0.0 0.0 0.00 0.00 0.00 1 1011.3
20260510093046 55 63 0.0 0.0 0.00 0.00 0.00 1 1011.4
20260510091542 56 63 0.0 0.0 0.00 0.00 0.00 1 1011.4
20260510090038 56 63 0.0 0.0 0.00 0.00 0.00 1 1011.3
20260510084534 56 63 0.0 0.0 0.00 0.00 0.00 1 1011.2
20260510083029 56 63 0.0 0.0 0.00 0.00 0.00 1 1010.9
20260510081527 57 63 0.0 0.0 0.00 0.00 0.00 1 1010.8
20260510080020 57 63 0.0 0.0 0.00 0.00 0.00 1 1010.5
20260510074515 57 63 0.0 0.0 0.00 0.00 0.00 1 1010.5
20260510073012 58 63 0.0 0.0 0.00 0.00 0.00 1 1010.5
20260510071507 58 63 0.0 0.0 0.00 0.00 0.00 1 1010.4
20260510070004 58 63 0.0 0.0 0.00 0.00 0.00 1 1010.3
20260510064602 58 63 0.0 0.0 0.00 0.00 0.00 1 1010.4
20260510063055 59 62 0.0 0.0 0.00 0.00 0.00 1 1010.4
20260510061550 59 62 0.0 0.0 0.00 0.00 0.00 1 1010.3
20260510060045 59 62 0.0 0.0 0.00 0.00 0.00 1 1010.3
20260510054540 59 63 0.0 0.0 0.00 0.00 0.00 1 1010.5
20260510053037 60 63 0.0 0.0 0.00 0.00 0.00 1 1010.7
20260510051534 60 63 0.0 0.0 0.00 0.00 0.00 1 1010.7
20260510050033 61 63 0.0 0.0 0.00 0.00 0.00 1 1010.7
20260510044523 61 63 0.0 0.0 0.00 0.00 0.00 1 1010.6
20260510043019 61 63 0.0 0.0 0.00 0.00 0.00 1 1010.6
20260510041514 61 63 0.0 0.0 0.00 0.00 0.00 1 1010.7
20260510040012 62 63 0.0 0.0 0.00 0.00 0.00 1 1010.7
20260510034505 62 63 0.0 0.0 0.00 0.00 0.00 1 1010.7
20260510033001 62 63 0.0 0.0 0.00 0.00 0.00 1 1010.7
20260510031559 62 63 0.0 0.0 0.00 0.00 0.00 3 1010.6
20260510030052 63 63 0.0 0.0 0.00 0.00 0.00 11 1010.6
20260510024548 63 63 0.0 0.0 0.00 0.00 0.00 13 1010.6
20260510023044 64 63 0.0 0.0 0.00 0.00 0.00 22 1010.4
20260510021541 64 63 0.0 0.0 0.00 0.00 0.00 24 1010.1
20260510020035 65 63 0.0 0.0 0.00 0.00 0.00 30 1010.1
20260510014533 65 63 0.0 0.0 0.00 0.00 0.00 32 1009.9
20260510013026 66 63 0.0 0.0 0.00 0.00 0.00 39 1009.6
20260510011522 66 63 0.0 0.0 0.00 0.00 0.00 42 1009.2
20260510010019 67 63 0.0 0.0 0.00 0.00 0.00 48 1009.0
20260510004516 68 63 0.0 0.0 0.00 0.00 0.00 51 1008.7
20260510003009 68 63 0.0 0.0 0.00 0.00 0.00 53 1008.4
20260510001505 69 63 0.0 0.0 0.00 0.00 0.00 56 1008.4
20260509234558 70 63 0.0 0.0 0.00 0.00 0.00 59 1008.4
20260509233054 70 63 0.0 0.0 0.00 0.00 0.00 60 1007.9
20260509231550 70 63 0.0 0.0 0.00 0.00 0.00 61 1007.9
20260509230047 71 63 0.0 0.0 0.00 0.00 0.00 61 1007.6
20260509224556 71 90 0.0 0.0 0.00 0.00 0.00 61 1007.3
20260509223044 71 97 0.0 1.0 0.00 0.00 0.00 61 1007.5
20260509221547 71 65 0.0 3.0 0.00 0.00 0.00 62 1007.4
20260509220033 71 147 0.0 1.0 0.00 0.00 0.00 62 1007.5
20260509214529 72 43 0.0 0.0 0.00 0.00 0.00 62 1007.4
20260509213025 72 127 0.0 0.0 0.00 0.00 0.00 62 1007.5
20260509211520 72 26 0.0 2.0 0.00 0.00 0.00 62 1007.3
20260509210021 72 62 0.0 0.0 0.00 0.00 0.00 62 1007.0
20260509204512 73 121 0.0 0.0 0.00 0.00 0.00 62 1007.1
20260509203007 73 296 0.0 0.0 0.00 0.00 0.00 62 1007.1
20260509201503 72 92 0.0 0.0 0.00 0.00 0.00 62 1007.2
20260509200104 72 319 0.0 0.0 0.00 0.00 0.00 62 1007.3
20260509194558 72 106 0.0 0.0 0.00 0.00 0.00 62 1007.5
20260509193050 73 355 0.0 0.0 0.00 0.00 0.00 62 1007.9
20260509191546 73 103 0.0 0.0 0.00 0.00 0.00 61 1007.9
20260509190050 73 290 0.0 0.0 0.00 0.00 0.00 61 1007.9
20260509184536 72 334 0.0 0.0 0.00 0.00 0.00 60 1007.8
20260509183032 73 16 0.0 0.0 0.00 0.00 0.00 60 1008.1
20260509181528 72 111 0.0 0.0 0.00 0.00 0.00 61 1008.3
20260509180023 72 301 0.0 0.0 0.00 0.00 0.00 61 1008.7
20260509174519 71 321 0.0 0.0 0.00 0.00 0.00 62 1008.7
20260509173015 72 17 0.0 0.0 0.00 0.00 0.00 62 1008.9
20260509171522 72 289 0.0 0.0 0.00 0.00 0.00 62 1008.8
20260509170023 71 229 0.0 0.0 0.00 0.00 0.00 62 1009.3
20260509164503 72 150 0.0 0.0 0.00 0.00 0.00 61 1009.5
20260509163058 72 80 0.0 0.0 0.00 0.00 0.00 61 1009.6
20260509161559 71 84 0.0 0.0 0.00 0.00 0.00 59 1009.9
20260509160052 70 70 0.0 1.0 0.00 0.00 0.00 58 1010.0
20260509154546 70 104 0.0 0.0 0.00 0.00 0.00 55 1010.0